Wind_Speed
36 36 37 37 37 37 37 36 36 36 36 36 35 35 34 34 35 35 35 36 36 37 36 36 37 37 37 38 38 37 37 36 36 37 37 37 36 37 36 36 37 37 37
35 35 36 36 36 37 36 36 36 36 35 35 35 35 34 33 33 35 36 36 36 35 35 36 37 37 37 38 38 38 38 38 38 38 39 39 38 38 37 37 38 39 39
34 34 35 35 35 35 36 36 34 34 34 35 35 36 36 35 34 34 35 36 37 36 36 36 37 36 37 37 37 38 38 39 39 39 39 39 39 38 38 39 40 40 40
33 34 33 34 34 34 35 36 35 34 33 33 34 35 35 34 34 34 34 35 36 36 36 37 36 37 37 37 38 39 39 39 40 40 40 41 41 40 39 40 41 41 42
31 32 32 32 33 33 33 34 35 35 34 33 33 33 34 34 34 34 34 35 36 36 36 36 36 37 38 39 39 39 39 39 40 40 40 41 41 42 42 41 41 42 42
29 30 31 31 31 32 32 33 34 35 34 34 34 33 33 33 34 34 35 35 36 36 37 37 37 37 38 38 38 39 40 40 40 41 42 42 42 42 42 42 42 42 42
29 29 29 30 31 31 31 32 33 33 33 34 34 34 34 34 34 34 35 35 36 36 37 38 38 38 39 39 38 39 40 41 41 42 42 43 44 43 43 43 44 43 43
28 28 29 29 30 31 31 32 32 32 32 33 33 34 34 34 35 35 35 36 36 37 38 39 39 38 38 38 39 40 39 40 41 42 43 43 44 44 45 45 45 45 44
27 28 28 29 29 30 30 31 31 32 32 32 33 32 32 33 35 35 35 36 37 38 39 40 41 42 41 41 40 40 40 41 41 43 44 45 45 45 46 46 45 44 44
27 28 28 28 29 29 30 30 31 31 32 32 32 33 33 33 33 33 35 37 38 39 39 40 41 42 42 41 41 42 42 43 44 44 45 45 45 45 45 46 46 45 44
27 27 28 27 28 29 30 30 31 32 32 33 33 33 33 34 34 34 35 36 37 39 40 40 40 41 42 43 43 43 42 42 43 43 44 44 44 44 44 45 47 47 47
26 26 27 28 29 29 30 31 31 32 32 33 33 33 33 34 35 36 36 37 37 38 39 41 42 42 42 42 43 43 43 42 42 42 42 43 43 45 45 45 47 48 48
26 26 26 27 28 29 29 30 31 31 32 32 33 33 34 35 35 36 37 38 39 39 40 40 41 42 43 43 43 44 44 44 43 42 42 42 42 43 44 45 46 46 47
27 26 26 26 27 28 28 30 30 31 32 32 33 33 34 35 36 36 37 38 39 40 40 40 40 41 41 42 43 44 45 44 42 42 42 43 44 45 46 46 46 46 47
27 28 28 28 27 27 28 29 30 30 31 32 33 34 34 35 35 36 37 38 38 39 39 40 41 41 42 42 43 44 45 44 44 44 44 45 45 46 47 47 47 47 47
27 28 28 29 29 28 29 29 29 30 30 31 32 33 34 34 35 36 37 37 38 39 40 41 41 42 43 43 44 44 44 45 45 45 46 45 45 46 47 47 47 48 49
27 28 29 29 29 30 30 30 30 30 30 31 31 32 33 34 34 35 36 37 38 40 41 41 42 43 43 43 43 43 43 44 45 46 46 46 46 45 46 46 47 48 49
29 28 29 29 29 30 30 31 31 32 32 32 32 32 33 34 35 35 36 37 38 39 40 41 42 43 43 43 43 43 43 43 44 45 46 46 47 47 46 46 47 47 49
30 29 29 30 30 30 30 30 31 31 31 31 31 32 33 33 34 34 35 36 36 37 38 39 40 41 41 42 42 43 43 44 45 45 46 46 46 47 47 47 47 48 49
29 30 30 30 30 30 30 30 30 30 30 31 31 31 32 32 33 33 34 35 36 37 37 38 39 39 40 40 41 42 43 44 44 45 45 46 46 47 47 48 48 49 49
29 30 30 30 30 30 30 30 30 30 30 30 31 31 31 32 32 33 34 35 36 37 37 38 38 39 39 40 40 40 41 42 43 44 44 45 46 47 48 48 48 49 49
29 29 29 29 29 29 29 30 30 30 31 31 31 32 32 32 33 33 34 35 36 36 37 37 37 37 38 38 38 39 40 41 42 43 44 45 47 48 48 48 48 48 47
28 29 28 29 29 29 29 29 29 30 30 31 31 32 32 33 33 33 34 35 35 36 36 37 37 37 38 38 39 39 40 41 42 43 44 45 46 46 47 47 47 46 46
27 28 28 28 29 29 29 29 29 30 31 31 31 32 32 33 33 34 34 34 35 35 36 36 37 37 38 38 39 39 40 41 42 43 44 44 45 45 45 45 45 45 44
27 27 27 28 28 29 29 29 29 29 29 30 30 31 31 32 32 32 32 33 34 35 36 37 37 37 37 38 39 40 41 41 42 43 43 44 44 44 44 44 43 43 43
27 27 27 27 28 28 29 29 29 29 29 30 31 31 30 31 31 32 32 33 34 34 35 36 36 37 38 39 40 41 41 42 42 43 43 43 44 44 44 43 43 42 41
Wind_Direction
263 263 262 261 259 257 255 254 255 254 253 252 251 251 251 252 250 248 248 248 246 247 248 248 249 250 252 255 256 257 259 260 261 261 262 263 264 265 267 267 267 268 269
264 262 262 261 259 256 253 253 253 252 252 251 249 249 250 250 250 249 248 248 247 249 249 248 250 251 253 255 257 258 259 259 261 263 263 263 264 264 266 267 268 269 269
264 263 262 260 258 256 253 251 251 252 251 250 248 247 247 249 249 249 248 248 248 248 250 250 251 252 254 255 258 259 260 260 262 263 264 264 264 264 266 268 269 270 270
264 262 261 260 257 255 253 251 251 252 252 251 249 248 247 248 248 249 249 248 248 249 251 252 253 254 255 256 258 260 261 262 263 264 264 265 266 265 266 269 270 270 270
264 261 260 259 256 254 253 253 251 251 252 252 250 248 248 249 250 251 251 250 249 250 250 252 253 255 256 258 260 261 260 262 263 265 266 266 267 266 266 268 270 270 271
264 262 259 258 256 254 253 252 251 251 251 251 250 249 249 250 250 252 252 251 250 250 251 251 253 255 257 259 261 261 261 262 264 266 267 268 268 268 269 270 270 270 271
263 261 259 257 256 255 253 252 251 251 251 251 250 250 250 250 251 252 254 253 252 252 252 252 255 257 258 260 261 262 263 263 264 266 267 269 269 270 271 272 272 271 272
261 259 258 257 256 254 253 252 251 250 251 251 251 251 251 251 251 253 254 253 253 254 254 254 256 257 259 260 261 261 263 264 265 267 268 270 270 271 271 272 272 272 272
261 259 259 258 256 254 253 253 251 250 251 251 251 251 252 252 252 253 254 254 254 255 256 257 258 258 258 259 261 262 263 265 267 268 269 270 271 272 272 272 273 273 272
262 261 259 258 256 254 254 253 251 251 251 251 251 252 253 254 253 253 254 255 257 258 259 260 259 259 259 260 262 263 265 267 269 270 269 269 271 272 273 273 273 273 273
264 263 260 257 256 256 255 253 252 252 253 252 252 252 253 253 254 255 255 256 258 260 260 260 261 261 261 261 262 265 266 268 270 270 270 270 272 273 273 274 274 274 274
265 265 263 260 258 257 255 254 253 253 252 252 253 254 255 255 255 255 257 258 259 260 261 262 262 262 262 262 264 265 265 269 270 270 271 273 274 273 274 274 275 275 275
265 265 264 262 259 257 256 255 255 255 254 254 253 254 256 257 257 257 257 258 260 261 262 263 263 263 263 262 263 265 266 268 270 270 271 273 273 274 275 275 275 276 275
263 263 263 261 260 259 257 256 256 256 255 255 255 256 257 258 258 258 258 258 260 261 262 263 263 264 264 264 265 266 267 268 269 270 272 273 273 274 275 275 276 276 276
262 263 263 262 262 260 259 258 258 257 257 257 257 258 260 260 260 259 259 259 260 261 263 263 264 264 265 266 267 267 267 267 269 271 272 274 274 274 275 275 275 276 277
262 262 262 261 261 260 260 260 260 259 258 259 259 260 261 262 263 262 262 262 262 262 263 264 265 266 266 267 268 268 268 268 269 270 272 274 275 276 276 276 276 277 279
263 262 262 261 260 259 259 260 260 260 261 261 262 262 262 264 264 264 263 264 264 264 264 265 266 266 267 267 267 267 268 270 271 272 273 274 275 276 277 278 278 278 280
261 261 262 263 263 261 261 261 260 261 261 263 264 263 263 265 265 265 264 264 265 265 265 266 266 267 267 268 268 268 269 270 271 273 274 275 275 276 277 278 278 279 280
263 262 262 262 263 262 262 262 261 261 263 264 264 265 264 265 265 265 265 265 266 267 267 268 268 268 269 269 268 269 271 271 272 274 275 276 276 277 278 278 279 280 281
263 263 263 263 263 263 262 263 262 261 263 264 265 267 267 266 266 266 267 267 268 269 269 269 269 269 269 269 269 269 271 272 272 274 275 277 278 278 279 280 280 281 281
264 264 264 263 263 264 263 264 265 263 263 265 267 267 268 268 268 268 269 270 269 269 270 271 271 271 270 270 270 271 272 273 273 274 276 278 279 279 280 281 282 283 282
264 263 263 263 263 264 264 264 266 265 264 265 267 267 269 270 270 271 271 272 272 271 272 272 273 273 273 272 271 272 273 274 275 276 277 279 280 280 281 282 283 283 282
265 263 263 264 265 264 265 265 266 266 266 267 268 269 270 271 273 273 273 274 274 274 275 274 273 274 274 274 273 274 275 276 277 278 279 280 282 282 282 283 283 282 282
265 264 263 264 265 265 265 267 267 268 268 269 269 270 271 272 273 274 275 275 276 276 276 275 274 274 274 275 275 276 276 278 280 280 281 282 283 283 283 283 283 283 283
265 265 265 264 265 266 267 268 269 269 269 269 269 270 271 272 274 275 276 277 277 277 276 275 276 276 276 277 278 278 278 280 281 282 281 282 283 283 283 283 283 283 282
265 266 265 265 266 267 268 269 269 269 270 270 270 271 272 273 274 276 277 278 278 278 277 277 277 278 278 279 280 281 281 282 283 283 283 283 283 283 283 282 283 282 282
Height
5722 5722 5722 5723 5723 5724 5725 5726 5727 5728 5728 5729 5730 5732 5733 5734 5736 5738 5740 5742 5744 5747 5750 5752 5755 5757 5760 5761 5763 5764 5765 5766 5767 5768 5768 5769 5769 5770 5770 5769 5769 5769 5769
5712 5712 5712 5712 5713 5714 5715 5716 5717 5718 5719 5721 5722 5723 5725 5726 5728 5729 5731 5734 5736 5739 5742 5744 5747 5749 5751 5753 5754 5755 5757 5758 5758 5759 5760 5760 5761 5761 5761 5760 5760 5760 5760
5703 5702 5702 5702 5703 5704 5705 5707 5708 5709 5711 5712 5713 5714 5716 5718 5719 5721 5723 5726 5728 5731 5734 5736 5739 5741 5743 5744 5746 5747 5748 5749 5749 5750 5751 5751 5752 5752 5752 5751 5751 5750 5750
5693 5693 5693 5693 5693 5695 5696 5697 5699 5700 5702 5703 5704 5706 5708 5710 5712 5714 5715 5718 5720 5723 5726 5728 5730 5732 5734 5735 5737 5738 5739 5739 5740 5740 5741 5741 5742 5742 5743 5742 5741 5740 5739
5684 5684 5684 5684 5685 5686 5687 5688 5690 5692 5693 5695 5696 5698 5700 5702 5704 5705 5707 5710 5712 5715 5717 5719 5722 5724 5725 5726 5727 5728 5729 5730 5730 5730 5730 5731 5731 5731 5732 5732 5731 5730 5728
5675 5675 5675 5675 5676 5677 5678 5679 5681 5683 5685 5686 5688 5690 5692 5693 5695 5697 5700 5702 5704 5706 5708 5710 5712 5714 5715 5716 5717 5718 5719 5720 5720 5720 5720 5721 5721 5721 5721 5720 5720 5719 5718
5667 5667 5667 5667 5668 5668 5670 5671 5673 5674 5676 5678 5680 5682 5684 5686 5688 5690 5691 5694 5696 5698 5700 5701 5703 5704 5706 5707 5707 5708 5709 5709 5710 5710 5710 5710 5710 5710 5709 5709 5709 5708 5707
5659 5659 5659 5659 5659 5660 5661 5662 5664 5666 5667 5669 5671 5673 5675 5677 5679 5681 5683 5685 5687 5689 5690 5692 5693 5694 5695 5696 5697 5697 5698 5698 5699 5699 5699 5699 5698 5698 5698 5698 5697 5697 5696
5651 5651 5651 5651 5651 5652 5653 5654 5656 5657 5659 5661 5663 5665 5667 5669 5671 5673 5675 5677 5678 5680 5681 5682 5683 5684 5685 5686 5686 5687 5687 5687 5687 5687 5687 5687 5687 5686 5686 5685 5684 5684 5684
5643 5643 5643 5643 5643 5644 5645 5646 5648 5649 5651 5653 5655 5657 5659 5661 5662 5664 5666 5668 5669 5671 5672 5672 5673 5674 5674 5675 5676 5676 5676 5676 5676 5676 5675 5675 5675 5674 5673 5672 5672 5671 5671
5635 5635 5635 5635 5635 5636 5637 5638 5640 5641 5643 5645 5647 5649 5651 5652 5654 5655 5657 5658 5660 5661 5662 5662 5663 5663 5664 5664 5665 5665 5665 5664 5664 5663 5663 5663 5662 5662 5661 5660 5659 5658 5658
5627 5627 5627 5627 5628 5629 5629 5631 5632 5633 5635 5637 5639 5640 5642 5643 5645 5646 5647 5648 5650 5650 5651 5652 5652 5652 5653 5654 5654 5654 5654 5653 5652 5652 5651 5651 5650 5650 5649 5647 5646 5645 5644
5619 5619 5619 5619 5620 5621 5621 5622 5624 5625 5626 5628 5630 5631 5633 5634 5635 5636 5637 5638 5639 5640 5641 5641 5641 5642 5642 5642 5642 5642 5642 5642 5641 5641 5640 5640 5639 5638 5637 5635 5634 5632 5631
5611 5611 5611 5611 5612 5612 5613 5614 5615 5616 5618 5619 5621 5622 5623 5624 5625 5626 5627 5628 5629 5630 5630 5630 5630 5631 5631 5631 5631 5631 5631 5630 5630 5629 5628 5628 5627 5626 5625 5623 5621 5619 5618
5603 5603 5603 5604 5604 5605 5605 5606 5607 5608 5609 5610 5612 5612 5613 5614 5615 5616 5616 5617 5618 5619 5619 5619 5619 5619 5619 5619 5619 5619 5618 5618 5618 5617 5616 5615 5614 5613 5612 5610 5608 5606 5605
5594 5594 5595 5595 5596 5596 5597 5598 5598 5599 5600 5601 5602 5603 5603 5604 5604 5605 5605 5606 5607 5607 5608 5608 5608 5608 5608 5607 5607 5606 5606 5606 5605 5605 5604 5603 5601 5600 5598 5597 5595 5593 5591
5585 5585 5586 5586 5587 5587 5588 5589 5589 5590 5591 5592 5592 5593 5593 5593 5594 5594 5594 5595 5595 5595 5596 5595 5595 5595 5595 5595 5594 5594 5594 5593 5593 5592 5591 5590 5588 5587 5585 5583 5582 5580 5577
5576 5576 5577 5577 5578 5578 5579 5580 5580 5581 5582 5582 5582 5582 5583 5583 5583 5583 5583 5584 5584 5584 5584 5583 5583 5583 5583 5582 5582 5581 5581 5581 5580 5579 5578 5577 5575 5573 5572 5571 5569 5566 5564
5567 5568 5568 5569 5569 5569 5570 5570 5571 5572 5572 5572 5572 5572 5572 5572 5572 5573 5573 5573 5572 5572 5572 5571 5571 5571 5570 5570 5569 5569 5568 5568 5567 5566 5565 5564 5562 5560 5559 5557 5556 5553 5550
5558 5559 5559 5560 5560 5560 5561 5561 5562 5562 5563 5563 5563 5562 5562 5562 5562 5562 5562 5562 5561 5561 5560 5560 5559 5559 5558 5557 5557 5556 5556 5556 5555 5554 5552 5551 5549 5546 5544 5543 5541 5539 5536
5549 5550 5550 5550 5551 5551 5551 5552 5553 5553 5553 5553 5553 5553 5553 5553 5552 5552 5552 5551 5550 5550 5549 5549 5548 5547 5546 5545 5545 5544 5543 5543 5542 5540 5539 5537 5535 5533 5531 5528 5526 5524 5521
5540 5540 5541 5541 5541 5542 5542 5543 5543 5543 5543 5543 5543 5543 5543 5543 5542 5542 5541 5540 5540 5539 5538 5537 5536 5535 5534 5533 5532 5532 5531 5530 5529 5527 5526 5524 5522 5519 5517 5514 5512 5509 5507
5531 5531 5532 5532 5532 5533 5533 5534 5534 5534 5533 5534 5533 5533 5533 5532 5532 5531 5531 5530 5529 5528 5527 5526 5525 5524 5523 5522 5521 5519 5518 5517 5516 5514 5512 5510 5508 5505 5503 5500 5498 5495 5492
5522 5522 5523 5523 5523 5524 5524 5524 5524 5524 5524 5524 5524 5523 5523 5522 5522 5521 5520 5519 5518 5517 5516 5515 5514 5513 5512 5510 5509 5508 5506 5505 5503 5501 5499 5496 5494 5491 5489 5486 5484 5481 5479
5514 5514 5514 5514 5514 5515 5515 5515 5515 5514 5514 5514 5514 5513 5513 5512 5512 5511 5510 5509 5508 5506 5505 5504 5503 5502 5501 5499 5497 5495 5494 5492 5490 5487 5485 5483 5481 5478 5476 5473 5470 5468 5465
5505 5505 5505 5505 5506 5506 5506 5505 5505 5505 5505 5504 5504 5503 5503 5502 5502 5501 5500 5498 5497 5495 5494 5493 5492 5490 5489 5487 5485 5483 5481 5479 5477 5474 5472 5470 5468 5465 5462 5460 5457 5454 5452